[[{"header":{"parameterUnit":"m.s-1","parameterCategory":1,"la1":30.2991,"la2":30.254,"lo1":-89.0895,"lo2":-89.0444,"dy":0.0017,"dx":0.0017,"nx":28,"ny":28,"refTime":"2024-03-24T21:00:00:Z","depth":0,"parameterNumber":2,"parameterNumberName":"U-component_of_WINDS"},"data":[0,0,0,0,0,0,0,0,0,0,0,0,0,0,0,0,0,0,0,0,0,0,0,0,0,0,0,0,0,0,0,0,0,0,0,0,0,0,0,0,0,0,0,0,0,0,0,0,0,0,0,0,0,0,0,0,0,0,-4.7974,-4.7976,0,-4.8218,-4.8221,-4.8223,-4.8325,-4.8324,-4.8324,-4.8323,-4.858,-4.8587,-4.8594,0,0,0,0,0,0,0,0,0,0,0,0,0,-4.7602,-4.7608,-4.7974,-4.7977,-4.798,-4.8217,-4.8221,-4.8224,-4.8325,-4.8324,-4.8324,-4.8323,-4.8577,-4.8586,-4.8595,0,0,0,0,0,0,0,0,0,0,0,0,0,-4.7796,-4.761,-4.7973,-4.8058,-4.8069,-4.8217,-4.8221,-4.8225,-4.8325,-4.8324,-4.8323,-4.8323,-4.8574,-4.8585,-4.8596,-4.8679,0,0,-4.8629,-4.8634,0,0,0,0,0,0,0,0,-4.7785,-4.781,-4.8043,-4.8053,-4.8064,-4.824,-4.8184,-4.8378,-4.8325,-4.8228,-4.8323,-4.8322,-4.8468,-4.8487,-4.8535,-4.8691,-4.8702,-4.863,-4.8637,-4.8642,-4.8645,0,0,0,0,0,0,0,-4.7771,-4.78,-4.807,-4.8046,-4.8059,-4.8087,-4.8114,-4.8221,-4.8349,-4.8236,-4.8244,-4.8271,-4.8473,-4.8524,-4.8542,-4.8706,-4.863,-4.864,-4.8647,-4.8651,-4.8945,-4.8946,0,0,0,0,0,0,-4.7743,-4.7788,-4.8063,-4.8078,-4.792,-4.8094,-4.8124,-4.8185,-4.8348,-4.8373,-4.8272,-4.8275,-4.8506,-4.8529,-4.8551,-4.866,-4.8642,-4.8652,-4.8658,-4.8943,-4.8945,-4.8946,0,0,0,0,0,0,-4.7735,-4.7766,-4.8053,-4.7935,-4.7974,-4.8101,-4.8168,-4.819,-4.8241,-4.8375,-4.8399,-4.8299,-4.8506,-4.8536,-4.8647,-4.867,-4.8657,-4.8667,-4.8942,-4.8944,-4.8946,-4.8878,0,0,0,0,0,0,-4.7723,-4.7763,-4.7794,-4.7935,-4.7979,-4.8141,-4.817,-4.8195,-4.8258,-4.8265,-4.8408,-4.8431,-4.8508,-4.863,-4.8657,-4.8685,-4.8675,-4.894,-4.8943,-4.8945,-4.8878,-4.8877,-4.8876,0,0,0,0,0,-4.771,-4.7766,-4.7795,-4.7828,-4.8021,-4.8143,-4.8168,-4.8254,-4.826,-4.8293,-4.838,-4.8426,-4.8663,-4.864,-4.8672,-4.8704,-4.8939,-4.8942,-4.8945,-4.8879,-4.8877,-4.8876,0,0,0,0,0,0,-4.7627,-4.7786,-4.782,-4.7923,-4.8018,-4.8159,-4.8204,-4.825,-4.8347,-4.8349,-4.8454,-4.8485,-4.8587,-4.8657,-4.8628,-4.8794,-4.8805,-4.8814,-4.8744,-4.8744,-4.8742,-4.8723,-4.8684,0,0,0,0,0,-4.762,-4.7703,-4.7839,-4.7918,-4.7963,-4.8075,-4.8132,-4.819,-4.8293,-4.8335,-4.843,-4.853,-4.8628,-4.869,-4.8787,-4.8889,-4.8923,-4.8927,-4.8926,-4.8924,-4.8931,-4.8992,-4.8995,-4.8955,-4.8955,-4.8955,0,0,-4.7608,-4.7705,-4.7752,-4.7903,-4.7984,-4.807,-4.8109,-4.8198,-4.8264,-4.8349,-4.8458,-4.8532,-4.8652,-4.8758,-4.881,-4.882,-4.895,-4.8928,-4.8925,-4.8933,-4.8995,-4.8998,-4.9002,-4.8957,-4.8957,-4.8957,0,0,-4.7629,-4.7711,-4.7785,-4.7865,-4.7986,-4.806,-4.8077,-4.8212,-4.8264,-4.8375,-4.8441,-4.8522,-4.8688,-4.877,-4.8834,-4.8888,-4.8934,-4.8917,-4.891,-4.8968,-4.8971,-4.8974,-4.8994,-4.9,-4.8923,-4.8923,-4.8923,0,-4.7599,-4.7729,-4.7818,-4.7904,-4.7969,-4.8049,-4.8126,-4.82,-4.8347,-4.8391,-4.84,-4.8609,-4.8696,-4.8823,-4.8836,-4.8885,-4.891,-4.8901,-4.8963,-4.8967,-4.8972,-4.8992,-4.8999,-4.892,-4.8921,-4.8921,-4.8921,0,-4.7687,-4.7776,-4.7822,-4.796,-4.8031,-4.8112,-4.8215,-4.8277,-4.8329,-4.8403,-4.8516,-4.8623,-4.8743,-4.8778,-4.8831,-4.8914,-4.8916,-4.8942,-4.8955,-4.8971,-4.8992,-4.9,-4.8916,-4.8917,-4.8918,-4.8919,0,0,-4.7662,-4.7848,-4.7863,-4.7927,-4.8066,-4.8139,-4.8224,-4.834,-4.8391,-4.8491,-4.8566,-4.8705,-4.873,-4.8802,-4.8865,-4.8916,-4.8953,-4.8937,-4.8941,-4.8936,-4.9052,-4.9031,-4.9038,-4.8985,-4.8986,-4.8988,-4.9042,0,-4.7702,-4.7856,-4.7939,-4.8059,-4.8144,-4.8221,-4.8297,-4.8391,-4.8463,-4.8548,-4.8629,-4.8725,-4.8751,-4.8795,-4.8848,-4.8936,-4.8977,-4.8934,-4.9058,-4.9061,-4.9024,-4.9049,-4.9027,-4.9073,-4.9051,-4.9052,-4.9053,0,-4.7769,-4.7865,-4.7993,-4.8123,-4.8162,-4.8227,-4.8341,-4.8419,-4.853,-4.8579,-4.8659,-4.8722,-4.8818,-4.8824,-4.8959,-4.8927,-4.8984,-4.9035,-4.9039,-4.9053,-4.9057,-4.9064,-4.909,-4.9097,-4.9067,-4.9066,-4.9065,0,-4.7738,-4.79,-4.7997,-4.8049,-4.8204,-4.8248,-4.8315,-4.8425,-4.8489,-4.8589,-4.8633,-4.8743,-4.8804,-4.8889,-4.8981,-4.8977,-4.9107,-4.9121,-4.9152,-4.915,-4.9176,-4.9173,-4.921,-4.9212,-4.9212,-4.9211,-4.9211,0,-4.7774,-4.7849,-4.7985,-4.8045,-4.8132,-4.8228,-4.8313,-4.8386,-4.8483,-4.8561,-4.8636,-4.8707,-4.8824,-4.8911,-4.8984,-4.9084,-4.9112,-4.9155,-4.9174,-4.9148,-4.9143,-4.9186,-4.9185,-4.9213,-4.9213,-4.9213,-4.9212,0,-4.7754,-4.7848,-4.7959,-4.8096,-4.8132,-4.819,-4.8309,-4.8371,-4.8447,-4.8544,-4.8573,-4.8693,-4.8799,-4.8899,-4.9041,-4.909,-4.9192,-4.9216,-4.9154,-4.9164,-4.9189,-4.9185,-4.9256,-4.927,-4.9261,-4.9261,-4.9261,0,-4.7771,-4.783,-4.7973,-4.8028,-4.8093,-4.8183,-4.8248,-4.8346,-4.8412,-4.8543,-4.859,-4.8701,-4.8795,-4.8962,-4.9063,-4.9173,-4.92,-4.9218,-4.9218,-4.919,-4.9201,-4.9196,-4.9203,-4.9215,-4.9215,-4.9215,-4.9214,0,-4.779,-4.7834,-4.7924,-4.8031,-4.8107,-4.8197,-4.8289,-4.8331,-4.8448,-4.8518,-4.8626,-4.8699,-4.8844,-4.8954,-4.9075,-4.9148,-4.9201,-4.9214,-4.9227,-4.9201,-4.9163,-4.9184,-4.9148,-4.9212,-4.9212,-4.9212,-4.9212,-4.9212,-4.779,-4.7846,-4.7955,-4.8054,-4.8133,-4.8218,-4.8283,-4.8366,-4.8457,-4.8581,-4.8634,-4.8744,-4.8855,-4.9023,-4.9095,-4.9184,-4.9196,-4.9215,-4.922,-4.9223,-4.9218,-4.9148,-4.9207,-4.9207,-4.9207,-4.9207,-4.9208,0,-4.7813,-4.7887,-4.7976,-4.8102,-4.818,-4.8222,-4.8327,-4.839,-4.8484,-4.8582,-4.8673,-4.8798,-4.8906,-4.9015,-4.913,-4.918,-4.9208,-4.9207,-4.9204,-4.922,-4.92,-4.9177,-4.9182,-4.9182,-4.9182,-4.9182,-4.9182,-4.9182,-4.7834,-4.7932,-4.7988,-4.8127,-4.8202,-4.8307,-4.8364,-4.8443,-4.8522,-4.8657,-4.8745,-4.8816,-4.892,-4.9042,-4.9143,-4.9173,-4.9212,-4.9204,-4.9241,-4.922,-4.9221,-4.9222,-4.9202,-4.9212,-4.9212,-4.9254,-4.9254,-4.9254]},{"header":{"parameterUnit":"m.s-1","parameterCategory":1,"la1":30.2991,"la2":30.254,"lo1":-89.0895,"lo2":-89.0444,"dy":0.0017,"dx":0.0017,"nx":28,"ny":28,"refTime":"2024-03-24T21:00:00:Z","depth":0,"parameterNumber":3,"parameterNumberName":"V-component_of_WINDS"},"data":[0,0,0,0,0,0,0,0,0,0,0,0,0,0,0,0,0,0,0,0,0,0,0,0,0,0,0,0,0,0,0,0,0,0,0,0,0,0,0,0,0,0,0,0,0,0,0,0,0,0,0,0,0,0,0,0,0,0,8.1008,8.1009,0,8.1087,8.1088,8.1089,8.1056,8.1054,8.1052,8.105,8.1127,8.113,8.1134,0,0,0,0,0,0,0,0,0,0,0,0,0,8.0824,8.0828,8.1008,8.1009,8.101,8.1087,8.1088,8.1089,8.1056,8.1054,8.1052,8.1049,8.1126,8.113,8.1135,0,0,0,0,0,0,0,0,0,0,0,0,0,8.0904,8.0829,8.1008,8.1003,8.1003,8.1087,8.1088,8.1089,8.1057,8.1054,8.1051,8.1048,8.1124,8.113,8.1135,8.1227,0,0,8.1153,8.1155,0,0,0,0,0,0,0,0,8.0899,8.091,8.1003,8.1003,8.1004,8.1059,8.1051,8.1135,8.1057,8.1036,8.105,8.1047,8.1106,8.1113,8.1134,8.123,8.1234,8.1153,8.1157,8.1159,8.1161,0,0,0,0,0,0,0,8.0894,8.0907,8.1039,8.1004,8.1005,8.0995,8.1004,8.1067,8.1086,8.1038,8.1036,8.1046,8.1106,8.1129,8.1136,8.1235,8.1153,8.1158,8.1162,8.1164,8.1412,8.1415,0,0,0,0,0,0,8.0889,8.0902,8.1037,8.1041,8.0944,8.1001,8.101,8.1044,8.1085,8.1089,8.1048,8.1044,8.112,8.1129,8.1138,8.125,8.1159,8.1164,8.1168,8.1409,8.1413,8.1416,0,0,0,0,0,0,8.0885,8.0901,8.1033,8.0971,8.0988,8.1007,8.1045,8.1047,8.107,8.1093,8.1096,8.1068,8.1118,8.113,8.1206,8.1252,8.1167,8.1172,8.1405,8.141,8.1415,8.1474,0,0,0,0,0,0,8.088,8.09,8.0936,8.0973,8.0991,8.1101,8.1048,8.1051,8.108,8.1076,8.1113,8.1116,8.1117,8.1198,8.1212,8.1259,8.1176,8.1401,8.1408,8.1413,8.1468,8.148,8.149,0,0,0,0,0,8.0873,8.0948,8.0938,8.0954,8.1037,8.1104,8.1114,8.1116,8.1084,8.112,8.1135,8.1115,8.1245,8.1206,8.1221,8.127,8.1398,8.1406,8.1413,8.1463,8.1477,8.149,0,0,0,0,0,0,8.0913,8.0952,8.0942,8.103,8.1065,8.1098,8.1143,8.1131,8.1173,8.1167,8.1165,8.1174,8.1252,8.1268,8.1224,8.1362,8.1317,8.1327,8.1349,8.1363,8.1375,8.137,8.1181,0,0,0,0,0,8.0933,8.0986,8.1016,8.1091,8.1109,8.1124,8.1153,8.1151,8.1185,8.1199,8.122,8.1253,8.1301,8.1333,8.1378,8.1469,8.1477,8.1511,8.1522,8.1531,8.1541,8.1592,8.1608,8.144,8.144,8.144,0,0,8.0973,8.1001,8.1034,8.11,8.1126,8.1181,8.1136,8.1194,8.1234,8.1207,8.1282,8.1297,8.1334,8.1419,8.1457,8.1434,8.1589,8.154,8.1548,8.1552,8.1601,8.1617,8.1631,8.1445,8.1444,8.1443,0,0,8.1075,8.1101,8.1168,8.1195,8.1236,8.1246,8.1261,8.1298,8.1308,8.1383,8.1364,8.1411,8.1493,8.1521,8.1546,8.166,8.1643,8.1674,8.1734,8.1783,8.1797,8.1808,8.1851,8.1866,8.1683,8.1683,8.1683,0,8.112,8.1202,8.1203,8.1264,8.1294,8.1274,8.1342,8.1368,8.1421,8.1441,8.1416,8.1521,8.1544,8.1636,8.1664,8.1684,8.1702,8.1671,8.1795,8.1807,8.1818,8.1858,8.1874,8.1687,8.1687,8.1686,8.1686,0,8.1256,8.1313,8.1362,8.1416,8.1451,8.1515,8.1525,8.156,8.1555,8.1567,8.1644,8.1671,8.1722,8.1743,8.1738,8.1835,8.182,8.1795,8.1749,8.1837,8.1875,8.1891,8.1692,8.1691,8.169,8.1689,0,0,8.1386,8.1441,8.1459,8.1485,8.1529,8.1572,8.1635,8.1687,8.1718,8.1755,8.1808,8.1879,8.1857,8.1885,8.1883,8.1926,8.2017,8.1896,8.1897,8.1919,8.2127,8.2147,8.2165,8.2006,8.2008,8.2011,8.2124,0,8.1493,8.1605,8.1608,8.1711,8.1764,8.1746,8.1801,8.1834,8.1846,8.1892,8.1905,8.1957,8.1922,8.194,8.1982,8.1997,8.2059,8.1989,8.2055,8.2057,8.2049,8.2185,8.2206,8.2312,8.2139,8.2142,8.2143,0,8.1632,8.1677,8.1786,8.1824,8.1846,8.1896,8.1945,8.1989,8.2025,8.2031,8.2064,8.2056,8.2119,8.2071,8.2158,8.2111,8.2138,8.2149,8.2153,8.2161,8.2107,8.2198,8.2345,8.2362,8.2166,8.2164,8.2163,0,8.1719,8.1805,8.1882,8.1904,8.195,8.1985,8.2006,8.2039,8.2071,8.2113,8.2134,8.2182,8.2209,8.2246,8.2251,8.2215,8.234,8.2291,8.2347,8.2347,8.2375,8.2374,8.2532,8.2389,8.2389,8.2389,8.2389,0,8.184,8.1907,8.1923,8.197,8.2045,8.2047,8.2121,8.2138,8.2169,8.2219,8.2204,8.2251,8.2254,8.2302,8.2305,8.2378,8.239,8.2396,8.2397,8.2399,8.2399,8.2418,8.2412,8.2393,8.2392,8.2391,8.2391,0,8.195,8.1963,8.2046,8.2083,8.2094,8.2148,8.2179,8.2224,8.2235,8.2299,8.2313,8.2331,8.2387,8.2395,8.2459,8.2461,8.255,8.2541,8.2539,8.2538,8.2594,8.259,8.2772,8.2797,8.2636,8.2638,8.2639,0,8.2027,8.2079,8.2123,8.2156,8.2179,8.2233,8.2266,8.2269,8.2304,8.2351,8.239,8.2445,8.2489,8.2578,8.2596,8.2646,8.2639,8.27,8.2647,8.2648,8.2643,8.2641,8.2647,8.2711,8.2712,8.2714,8.2715,0,8.2163,8.2167,8.2217,8.2269,8.231,8.235,8.2388,8.2416,8.2424,8.2464,8.2522,8.2557,8.2624,8.2678,8.2728,8.2747,8.2733,8.2731,8.2747,8.2751,8.2748,8.2753,8.2569,8.2728,8.2726,8.2725,8.2725,8.2724,8.2261,8.2307,8.2346,8.2402,8.2431,8.2468,8.2513,8.253,8.2579,8.2636,8.2634,8.2698,8.2733,8.2798,8.2821,8.2871,8.2851,8.2873,8.288,8.2886,8.2893,8.2739,8.2879,8.2879,8.2879,8.2878,8.2878,0,8.2399,8.2423,8.2474,8.2529,8.2573,8.2557,8.2599,8.2636,8.2694,8.2728,8.2773,8.284,8.2893,8.2915,8.2967,8.3003,8.2998,8.3016,8.3015,8.302,8.2906,8.2888,8.302,8.302,8.302,8.302,8.302,8.302,8.2476,8.2554,8.2563,8.2655,8.2678,8.2743,8.2768,8.2802,8.283,8.2906,8.2951,8.2966,8.2996,8.305,8.3098,8.3103,8.3123,8.3146,8.3148,8.3042,8.3028,8.3014,8.2997,8.315,8.315,8.3258,8.3259,8.326]}]]